Lapse_Rate
4.9 4.9 5.0 5.1 5.3 5.4 5.7 5.9 6.1 6.3 6.5 6.6 6.7 6.8 6.9 6.9 7.0 7.0 7.0 7.1 7.1 7.1 7.2 7.2 7.2 6.8 7.2 7.2 7.1 7.5 7.1 8.1 8.8 9.1 8.8 9.0 8.9 8.8 8.9 8.6 8.0 7.3 7.6 8.0 7.9
4.9 5.0 5.1 5.2 5.4 5.6 5.8 6.1 6.2 6.4 6.6 6.7 6.8 6.9 7.0 7.1 7.1 7.1 7.1 7.1 7.1 7.2 7.2 7.4 7.3 7.5 7.6 7.3 6.6 7.0 7.8 8.7 9.2 8.6 8.7 8.9 9.0 8.6 9.1 8.8 8.4 8.2 7.7 8.0 8.4
4.9 4.9 5.1 5.2 5.5 5.8 5.9 6.2 6.4 6.6 6.6 6.8 6.9 7.0 7.1 7.2 7.1 7.2 7.2 7.1 7.2 7.3 7.4 7.4 7.4 7.8 7.5 7.1 7.0 7.6 8.5 9.0 8.6 8.6 8.5 8.5 8.5 8.0 8.4 8.4 8.5 8.8 8.5 8.2 8.3
5.0 5.0 5.1 5.3 5.5 5.9 6.1 6.2 6.5 6.6 6.8 7.0 7.1 7.2 7.2 7.2 7.1 7.2 7.5 7.4 7.3 7.3 7.3 7.5 7.4 7.5 7.1 7.3 7.5 7.9 8.2 8.5 8.5 8.5 8.4 8.3 8.4 8.2 8.3 8.5 8.4 8.9 8.6 8.5 8.4
5.1 5.1 5.2 5.3 5.5 5.8 6.1 6.3 6.5 6.7 6.9 6.9 7.2 7.4 7.4 7.2 7.3 7.4 7.5 7.6 7.5 7.4 7.4 7.4 7.4 7.5 7.3 7.4 7.6 8.0 8.2 8.3 8.6 8.4 8.4 8.2 8.2 8.3 8.4 8.5 8.4 8.8 8.9 8.5 8.5
5.2 5.2 5.3 5.4 5.5 5.8 6.1 6.3 6.5 6.7 6.9 6.9 7.1 7.3 7.4 7.3 7.3 7.4 7.6 7.5 7.5 7.4 7.5 7.4 7.4 7.5 7.6 7.6 7.7 7.9 7.9 8.3 8.6 7.9 8.6 8.3 8.2 8.2 8.0 8.3 8.4 8.3 8.6 8.8 8.6
5.3 5.3 5.4 5.4 5.6 5.7 6.0 6.3 6.5 6.7 6.8 7.0 7.1 7.2 7.3 7.2 7.2 7.4 7.4 7.5 7.4 7.4 7.4 7.5 7.8 7.8 7.8 8.1 8.0 8.0 8.2 8.6 8.4 8.9 9.0 8.3 8.2 8.1 8.5 8.2 8.2 8.0 8.0 8.4 8.5
5.4 5.4 5.5 5.5 5.6 5.7 5.9 6.2 6.4 6.6 6.8 7.0 7.1 7.1 7.0 7.4 7.2 7.4 7.2 7.4 7.3 7.4 7.3 7.8 8.1 7.9 8.0 8.2 8.6 9.0 8.7 8.7 8.6 9.1 9.2 9.0 8.4 8.5 8.0 8.3 8.3 8.1 8.1 7.9 8.1
5.5 5.5 5.6 5.6 5.7 5.7 5.9 6.1 6.3 6.5 6.7 6.8 7.0 7.0 6.9 7.3 7.1 7.2 7.2 7.0 6.9 7.0 7.3 7.7 7.6 7.9 7.9 8.4 8.7 8.7 8.8 8.9 8.6 9.1 9.3 9.0 8.7 8.5 8.9 8.9 8.5 8.1 7.9 7.7 7.7
5.6 5.6 5.6 5.7 5.7 5.7 5.8 6.0 6.2 6.4 6.6 6.7 6.8 6.8 6.9 7.0 7.3 7.2 7.3 7.5 7.4 7.1 7.0 7.2 7.5 7.7 7.7 8.1 8.4 8.5 9.3 8.9 9.3 9.4 9.5 9.1 8.8 8.7 8.7 8.9 8.4 8.0 8.1 7.6 7.7
5.7 5.7 5.7 5.7 5.8 5.8 5.8 6.0 6.0 6.2 6.5 6.5 6.6 6.5 6.7 6.8 7.2 7.3 7.3 7.5 7.2 7.2 6.9 6.7 7.4 7.5 8.0 8.5 8.5 8.6 9.3 9.3 9.3 9.3 9.3 8.9 8.8 8.9 8.9 8.6 8.7 8.3 8.2 7.5 7.5
5.7 5.8 5.8 5.8 5.8 5.8 5.9 5.9 6.0 6.2 6.4 6.6 6.5 6.9 7.0 6.7 7.1 7.3 7.2 7.2 7.2 7.1 7.0 7.2 7.6 7.6 8.2 8.2 8.4 8.9 9.0 9.2 9.1 9.1 9.4 9.1 9.0 8.7 8.7 8.5 8.6 8.1 8.2 7.7 7.5
5.8 5.8 5.8 5.8 5.8 5.7 5.8 5.7 5.9 6.2 6.4 6.6 6.6 6.7 7.2 6.7 6.9 7.0 7.1 7.0 7.2 7.4 7.4 7.3 7.8 8.0 7.9 8.5 8.6 8.4 8.6 8.8 8.9 8.8 9.4 9.4 9.0 8.7 8.4 8.3 8.2 7.7 8.0 8.0 7.6
6.0 5.9 5.9 5.8 5.8 5.9 6.1 6.0 6.0 6.0 6.3 6.8 6.9 6.7 6.8 6.4 6.9 7.0 6.8 7.1 7.3 7.3 7.4 7.6 7.7 7.9 8.3 8.1 8.3 8.3 8.5 8.6 8.8 8.8 9.1 9.1 9.0 8.5 8.5 8.5 8.3 8.0 7.9 7.8 7.7
6.1 6.0 6.0 5.9 5.8 6.0 5.9 5.9 5.9 6.2 5.4 7.0 6.8 6.8 6.7 6.9 7.0 7.0 6.9 7.0 7.2 7.3 7.5 7.4 7.9 8.6 8.5 8.6 8.7 8.3 8.7 8.7 8.7 8.9 8.7 9.2 8.9 8.4 8.4 8.5 8.4 8.1 7.7 7.7 7.7
6.2 6.2 6.1 6.0 6.0 6.2 6.0 5.8 6.0 6.2 6.3 7.1 7.1 7.2 6.9 7.0 7.1 7.1 6.9 7.0 7.3 7.4 7.6 7.7 8.2 8.6 8.8 8.7 8.6 8.4 8.5 8.7 8.9 8.9 8.4 9.5 9.1 8.6 8.3 8.9 8.5 8.1 8.0 7.5 7.5
6.3 6.4 6.3 6.3 6.2 6.2 6.0 5.8 6.0 6.2 7.1 7.4 7.5 7.5 7.1 7.0 7.0 7.1 7.2 7.2 7.4 7.6 7.9 8.1 8.2 8.4 8.6 8.9 8.7 8.6 8.5 8.3 7.8 7.1 7.4 9.0 9.1 8.9 8.7 8.8 8.8 8.3 8.0 7.7 7.1
6.3 6.6 6.7 6.4 6.4 6.1 6.1 6.0 6.5 7.4 7.2 7.5 7.4 7.3 7.4 7.3 7.2 7.3 7.6 7.6 7.8 7.9 7.9 8.2 8.5 8.2 8.4 8.6 8.5 8.4 8.4 8.2 7.5 6.7 7.6 9.0 8.5 8.5 9.0 8.6 8.4 8.1 7.8 7.4 7.0
6.4 6.7 7.0 6.5 6.5 6.4 6.1 5.8 7.2 7.5 7.3 6.9 7.0 7.1 7.5 7.8 7.7 7.5 7.6 8.1 8.3 8.2 8.0 8.2 8.2 8.2 8.5 8.5 8.6 8.6 8.5 8.1 8.1 8.3 8.2 8.2 8.2 8.4 8.6 8.5 8.2 8.0 7.9 7.5 7.2
6.5 6.8 7.1 6.5 6.6 6.4 6.1 6.3 7.5 7.6 7.7 7.5 7.4 8.0 8.0 8.4 8.0 7.7 7.7 8.1 8.4 8.5 8.5 8.5 9.1 8.6 8.7 8.7 8.7 8.7 8.3 8.2 8.1 7.1 8.0 8.6 8.5 8.6 8.6 8.5 8.3 8.2 8.3 7.9 7.2
6.5 7.0 6.5 6.6 6.5 6.2 6.0 6.8 7.8 8.0 7.8 7.8 7.7 8.3 8.1 8.3 7.8 8.1 8.5 8.9 9.1 8.4 9.0 8.2 9.0 9.3 9.0 9.0 8.8 8.3 8.4 8.3 8.1 8.0 6.9 6.7 8.3 8.8 8.9 8.7 8.8 8.4 7.8 7.5 7.6
6.5 6.8 6.3 6.3 6.2 6.0 6.3 7.4 7.7 8.1 7.5 7.7 7.8 8.1 8.6 8.6 8.6 8.8 8.9 9.3 9.4 8.9 9.0 8.7 8.4 8.7 8.8 8.6 8.5 8.8 8.7 8.4 8.2 8.2 8.4 8.4 8.7 8.6 8.7 8.7 8.3 8.3 8.3 8.3 8.1
6.5 6.7 6.1 5.9 5.9 6.1 6.7 7.4 7.2 7.7 7.7 7.5 8.0 7.7 8.3 8.6 8.5 8.5 8.9 8.8 9.2 9.2 9.0 8.7 8.2 8.3 8.5 8.8 8.6 8.8 8.7 8.7 8.8 8.6 8.5 8.0 8.6 8.9 9.0 8.8 8.5 8.6 8.5 8.1 7.7
6.4 6.8 6.1 5.9 6.1 6.1 6.6 6.8 6.8 7.6 7.5 6.9 7.5 8.0 7.9 8.3 8.6 8.5 8.5 8.6 8.7 8.7 9.0 8.8 8.2 7.9 7.9 8.4 8.4 8.3 8.0 8.1 8.3 8.2 8.2 8.2 8.5 8.4 8.9 8.9 8.7 8.4 8.0 7.9 7.6
6.2 6.3 6.0 6.1 6.2 5.9 6.2 6.4 7.2 7.6 7.6 7.4 7.3 7.8 8.0 7.9 8.3 8.6 8.3 8.1 8.1 8.2 8.2 7.9 7.9 7.7 7.5 7.7 8.0 7.8 7.8 7.8 7.8 7.9 8.0 8.1 8.0 8.4 8.5 8.3 8.3 8.3 8.0 7.7 7.5
6.0 6.1 5.9 6.1 6.2 6.2 6.3 6.7 7.4 7.9 7.5 7.6 7.5 7.5 7.8 7.6 7.8 8.3 8.3 7.9 7.9 8.0 7.9 7.7 7.4 7.2 7.4 7.1 7.1 7.4 7.4 7.6 7.8 8.0 8.0 8.0 8.2 8.2 8.5 8.0 7.4 7.1 7.1 7.2 7.1
5.8 6.0 6.0 6.2 6.2 6.4 6.6 6.8 7.3 7.4 7.4 7.5 7.5 7.6 7.5 7.2 7.5 7.6 7.9 8.0 7.8 7.6 7.6 7.1 6.8 7.0 7.2 7.1 7.2 7.1 7.4 7.6 7.5 7.8 8.0 8.1 8.3 7.8 7.6 7.3 7.1 7.1 7.3 7.5 7.5
Wind_Speed
22 22 21 21 21 22 20 18 16 15 12 11 9 8 7 11 13 2 5 8 6 13 5 2 4 4 3 4 7 6 3 7 9 5 3 11 8 11 3 17 7 5 16 24 22
23 23 23 23 22 22 21 20 17 15 12 8 7 5 6 8 2 6 9 9 11 14 4 3 5 1 4 5 8 7 4 6 3 2 3 6 11 13 8 19 6 17 18 21 25
24 24 24 24 24 22 21 19 18 15 11 6 4 4 5 4 1 6 5 14 12 10 3 1 5 3 4 1 4 5 7 6 1 4 4 3 6 9 18 9 24 26 27 24 24
24 25 25 25 25 23 21 19 18 16 7 3 3 3 3 1 5 1 3 16 10 4 2 5 3 4 3 4 5 5 7 3 4 5 1 1 0 13 10 11 25 30 31 26 24
25 25 25 25 25 24 22 20 17 14 4 1 3 2 2 2 6 6 9 10 6 5 4 2 3 2 3 7 9 1 6 9 5 7 4 3 2 2 12 21 22 23 26 25 23
27 26 26 25 25 24 22 20 16 11 3 3 3 3 0 0 4 13 9 6 5 6 5 6 7 6 5 4 2 7 9 11 6 5 2 2 1 9 12 22 25 25 25 23 23
29 28 26 26 25 25 22 20 15 8 2 4 4 2 1 6 8 12 10 8 5 6 3 4 7 1 5 9 3 7 6 9 9 4 4 8 4 9 22 24 26 23 21 21 20
30 29 28 26 26 25 24 19 14 3 3 4 4 2 5 3 13 8 5 3 5 6 5 9 7 1 3 3 7 5 2 1 9 5 2 8 4 4 22 22 22 23 21 20 21
30 31 30 28 26 25 25 22 6 4 3 5 0 2 6 1 5 7 6 4 4 5 7 11 2 1 5 2 5 4 4 4 5 5 5 6 4 2 10 22 22 21 20 19 17
31 31 32 30 27 24 27 5 9 7 2 4 4 4 4 5 4 4 7 7 6 4 4 1 4 2 3 5 3 5 5 4 4 2 8 8 5 3 5 15 20 21 20 18 19
32 32 33 33 30 21 9 3 3 2 1 7 4 3 1 3 4 5 6 6 2 2 4 2 3 6 10 9 8 7 4 4 5 4 7 9 3 7 6 12 14 14 13 18 19
32 33 35 36 33 25 3 0 4 6 6 10 13 7 10 6 4 6 5 4 1 6 2 5 6 14 7 7 7 4 3 6 3 2 5 6 5 3 9 6 14 15 17 14 11
33 33 35 39 39 2 3 6 6 2 0 8 6 5 5 8 7 10 10 5 3 3 6 6 10 6 7 3 5 4 3 2 1 4 4 7 4 3 4 12 12 7 10 13 16
32 32 32 42 3 6 5 5 8 4 4 7 6 6 5 6 3 8 12 6 3 8 5 6 7 6 1 3 5 3 3 5 5 4 2 4 3 4 4 6 14 11 10 9 9
33 31 29 16 6 4 6 13 11 5 2 4 4 2 9 9 3 3 8 3 6 7 5 6 2 4 5 2 4 4 2 3 3 3 4 2 5 5 4 6 11 10 13 10 8
35 31 26 1 2 8 13 11 4 5 5 3 7 7 7 4 3 3 4 1 2 4 2 7 4 4 6 3 2 1 5 8 6 4 3 4 6 3 8 14 7 6 12 12 11
38 37 12 4 5 2 6 4 5 3 4 6 7 7 8 7 4 6 7 5 4 2 4 7 6 3 4 4 7 8 7 4 5 5 5 7 4 6 7 14 13 13 11 9 11
42 36 5 5 14 5 4 5 3 4 6 1 6 5 9 7 7 10 8 5 6 4 2 3 8 4 5 6 6 3 7 5 2 1 5 4 4 5 4 9 11 13 12 8 8
33 3 4 5 15 3 5 2 7 6 2 5 4 7 5 7 7 6 9 10 9 9 7 4 5 5 5 4 6 3 2 5 6 3 4 2 4 6 7 8 10 10 13 12 11
4 5 5 4 17 4 4 6 5 4 5 6 1 7 10 10 8 9 10 8 8 9 7 7 3 3 2 6 2 5 4 3 4 2 2 4 2 4 4 7 12 11 13 8 6
2 4 4 9 5 5 4 7 5 6 6 3 4 1 3 3 3 7 12 10 9 6 9 7 4 4 3 2 3 4 2 6 5 4 4 1 6 5 8 9 11 9 9 9 9
4 3 4 3 4 3 3 5 4 6 2 6 2 4 1 3 3 6 4 2 5 9 5 0 6 2 3 4 3 6 6 5 5 4 2 5 5 5 1 8 8 8 7 7 8
3 4 5 5 4 3 5 5 4 7 10 6 4 3 0 3 3 3 4 7 6 5 8 4 2 3 7 7 7 5 4 3 5 3 4 5 5 3 9 9 7 11 8 7 7
2 3 4 4 2 8 4 6 6 7 13 6 1 4 6 3 2 1 2 4 3 5 7 9 4 6 6 5 3 3 5 5 5 4 3 6 5 6 4 10 7 7 6 7 7
1 4 1 4 4 6 1 4 6 6 4 4 4 3 3 1 3 3 3 1 5 3 5 5 4 3 3 3 1 2 3 5 1 4 5 7 7 7 11 9 7 8 8 8 8
1 3 5 4 6 5 1 4 9 14 6 6 8 5 5 5 2 2 5 2 3 2 4 3 2 3 1 4 7 2 4 6 4 1 3 6 5 3 6 7 7 8 8 7 8
3 4 3 5 6 4 3 7 9 9 4 2 9 6 8 3 2 1 4 4 5 5 3 4 4 4 2 3 6 4 2 3 5 5 6 5 6 6 5 8 7 7 8 8 7
Wind_Direction
353 351 345 341 341 346 341 336 330 320 309 303 307 313 318 318 307 177 243 220 190 182 193 227 201 247 226 230 148 141 158 227 245 43 356 137 166 180 106 134 174 203 153 154 145
346 341 338 338 339 344 342 336 331 322 312 294 290 301 311 331 301 249 240 218 173 171 187 224 263 164 225 220 178 180 192 233 268 117 37 358 112 152 128 151 115 115 134 139 136
345 342 341 341 342 343 342 337 330 327 309 289 267 278 304 320 230 244 208 194 171 178 264 239 269 219 245 200 236 219 213 233 291 117 94 6 38 140 143 176 150 151 153 142 146
345 344 343 342 342 343 343 340 336 330 319 271 218 243 307 215 147 208 98 165 157 169 298 307 320 345 322 319 275 327 346 8 285 28 9 219 108 144 167 176 160 157 157 149 153
344 343 342 341 340 340 342 341 339 341 11 129 168 180 267 75 252 144 127 131 134 149 215 234 315 273 258 289 345 61 339 316 323 336 188 84 165 103 152 148 151 156 158 162 156
342 340 340 340 337 335 337 339 338 345 43 112 135 154 332 245 133 144 140 144 176 175 212 193 221 235 253 318 21 311 323 296 318 283 224 127 238 102 155 146 156 162 166 169 169
340 338 337 337 336 332 332 334 331 335 68 122 149 276 331 235 149 160 152 182 189 188 205 240 272 346 358 331 332 289 313 335 297 254 242 109 36 125 165 158 157 168 171 173 176
339 336 334 334 332 329 329 327 316 296 135 132 153 285 247 257 154 148 191 210 218 235 224 259 268 97 140 308 327 297 31 95 279 148 203 94 231 264 156 160 165 172 176 179 178
338 335 332 331 331 328 325 321 288 169 151 150 97 29 275 93 177 206 156 207 223 252 248 263 69 189 354 51 338 359 249 198 305 200 123 117 196 260 126 168 171 176 180 181 178
337 334 331 329 330 329 325 283 117 124 203 215 259 330 265 214 174 206 202 205 212 215 324 261 49 17 7 76 260 294 26 21 171 264 102 105 167 129 134 114 176 175 181 180 181
337 334 331 327 327 329 338 80 19 19 224 201 190 264 85 273 130 226 207 190 232 88 203 297 57 249 242 208 220 252 356 113 248 263 95 141 130 159 127 99 98 144 172 177 183
336 333 331 327 324 325 174 47 211 194 306 231 241 243 273 212 164 232 124 153 157 232 93 5 237 246 246 225 208 334 3 328 342 304 84 142 173 206 112 113 127 121 143 155 145
335 333 332 326 322 137 217 239 283 28 29 286 205 185 222 148 184 212 149 183 204 243 233 177 250 276 233 348 2 352 8 326 216 9 352 101 9 117 17 106 97 92 116 125 133
333 333 335 329 14 332 281 315 308 111 49 275 188 241 160 143 246 187 188 147 228 228 235 222 245 196 80 55 107 49 315 33 24 66 219 89 242 229 170 95 113 123 115 120 122
330 330 332 327 299 308 286 334 330 56 15 208 184 188 152 162 189 235 165 114 238 253 34 262 314 222 102 170 110 206 347 26 321 18 37 340 90 248 137 131 148 141 129 126 122
327 325 331 125 245 243 313 306 45 50 255 219 160 154 124 235 276 117 154 322 177 242 232 235 274 178 166 161 154 290 26 20 36 85 17 250 140 233 174 172 170 155 142 141 132
324 317 311 257 236 9 329 35 57 152 307 201 171 137 163 191 188 182 177 196 175 57 323 334 296 260 132 65 3 63 50 359 12 8 224 322 104 229 227 179 160 149 155 150 137
324 313 243 207 242 302 32 57 185 231 252 137 146 130 174 172 223 185 152 199 252 132 65 182 322 161 149 148 172 119 133 141 158 297 268 326 355 296 74 130 146 160 154 134 138
323 322 267 244 204 125 81 111 213 222 313 336 88 147 243 226 169 155 186 200 210 163 177 137 353 356 92 136 116 305 52 173 112 357 32 293 27 3 108 113 101 128 139 158 169
321 331 259 190 145 91 88 228 232 257 355 21 231 178 191 214 164 170 185 218 226 180 149 207 124 298 128 58 13 139 167 39 12 117 276 319 276 218 188 119 139 138 145 151 136
16 343 260 147 109 61 166 234 279 278 360 308 165 126 156 75 201 219 202 231 190 166 142 147 110 266 78 127 186 9 359 61 114 116 146 10 292 217 186 165 162 156 146 139 137
346 329 262 41 104 191 192 212 331 294 1 283 153 190 234 96 360 358 152 294 224 140 107 93 131 124 192 306 257 171 174 126 121 244 132 150 261 323 19 130 144 152 148 153 145
337 265 299 114 180 235 269 268 248 275 273 276 227 169 346 119 52 39 52 324 72 82 151 172 15 64 355 356 5 43 10 93 104 83 184 137 262 343 105 108 133 137 142 138 126
345 334 311 23 141 159 208 262 268 259 271 215 243 60 45 37 162 101 109 40 10 94 102 87 103 140 177 190 163 328 355 355 96 102 191 209 236 245 174 142 141 131 133 116 118
175 262 345 326 330 334 271 276 285 300 267 135 63 90 115 353 7 119 105 126 19 136 69 95 119 115 158 196 122 194 326 352 65 205 149 256 209 251 216 170 159 143 129 118 129
12 29 340 295 295 321 107 263 229 262 233 246 136 193 76 98 11 73 154 359 181 304 92 21 180 104 33 360 33 7 0 3 356 329 238 212 259 230 130 127 139 141 129 121 118
314 333 109 281 334 1 40 317 323 298 252 275 193 105 88 123 185 149 92 132 109 123 102 88 109 81 220 343 48 354 137 350 297 271 211 279 215 175 169 152 155 149 142 151 154